Time,TemperatureF,DewpointF,PressureIn,WindDirection,WindDirectionDegrees,WindSpeedMPH,WindSpeedGustMPH,Humidity,HourlyPrecipIn,Conditions,Clouds,dailyrainin,SoftwareType,DateUTC
2013-04-21 00:00:00,44.7,33.3,30.24,ESE,115,0.0,0.0,64,0.00,RA,OVC,0.00,WeatherDisplay:10.37,2013-04-21 04:00:00,
2013-04-21 00:05:00,44.6,33.2,30.24,ESE,115,0.0,0.0,64,0.00,RA,OVC,0.00,WeatherDisplay:10.37,2013-04-21 04:05:00,
2013-04-21 00:10:00,44.4,33.4,30.24,ESE,115,0.0,0.0,65,0.00,CLR,OVC,0.00,WeatherDisplay:10.37,2013-04-21 04:10:00,
2013-04-21 00:20:00,44.2,33.6,30.24,ESE,115,0.0,0.0,66,0.00,CLR,OVC,0.00,WeatherDisplay:10.37,2013-04-21 04:20:00,
2013-04-21 00:25:00,44.2,33.6,30.24,ESE,115,0.0,0.0,66,0.00,CLR,OVC,0.00,WeatherDisplay:10.37,2013-04-21 04:25:00,
2013-04-21 00:30:00,44.1,33.4,30.24,ESE,115,0.0,0.0,66,0.00,CLR,OVC,0.00,WeatherDisplay:10.37,2013-04-21 04:30:00,
2013-04-21 00:40:00,43.7,33.5,30.24,ESE,115,0.0,0.0,67,0.00,CLR,OVC,0.00,WeatherDisplay:10.37,2013-04-21 04:40:00,
2013-04-21 00:50:00,43.7,33.8,30.24,ESE,115,0.0,0.0,68,0.00,CLR,OVC,0.00,WeatherDisplay:10.37,2013-04-21 04:50:00,
2013-04-21 01:00:00,43.3,33.5,30.24,ESE,115,0.0,0.0,68,0.00,CLR,OVC,0.00,WeatherDisplay:10.37,2013-04-21 05:00:00,
2013-04-21 01:05:00,43.2,33.4,30.24,ESE,115,0.0,0.0,68,0.00,CLR,OVC,0.00,WeatherDisplay:10.37,2013-04-21 05:05:00,
2013-04-21 01:10:00,43.1,33.6,30.24,ESE,115,0.0,0.0,69,0.00,CLR,OVC,0.00,WeatherDisplay:10.37,2013-04-21 05:10:00,
2013-04-21 01:15:00,43.0,33.5,30.24,ESE,115,0.0,0.0,69,0.00,CLR,OVC,0.00,WeatherDisplay:10.37,2013-04-21 05:15:00,
2013-04-21 01:20:00,42.8,33.3,30.24,ESE,115,0.0,0.0,69,0.00,CLR,OVC,0.00,WeatherDisplay:10.37,2013-04-21 05:20:00,
2013-04-21 01:30:00,42.6,33.5,30.24,ESE,115,0.0,0.0,70,0.00,CLR,OVC,0.00,WeatherDisplay:10.37,2013-04-21 05:30:00,
2013-04-21 01:40:00,42.4,33.7,30.24,ESE,115,0.0,0.0,71,0.00,CLR,OVC,0.00,WeatherDisplay:10.37,2013-04-21 05:40:00,
2013-04-21 01:45:00,42.3,33.5,30.24,ESE,115,0.0,0.0,71,0.00,CLR,OVC,0.00,WeatherDisplay:10.37,2013-04-21 05:45:00,
2013-04-21 01:50:00,42.1,33.8,30.24,ESE,111,1.0,7.0,72,0.00,CLR,OVC,0.00,WeatherDisplay:10.37,2013-04-21 05:50:00,
2013-04-21 01:55:00,42.1,33.7,30.27,ESE,105,0.0,0.0,72,0.00,CLR,OVC,0.00,WeatherDisplay:10.37,2013-04-21 05:55:00,
2013-04-21 02:05:00,41.9,33.9,30.27,ENE,70,0.0,0.0,73,0.00,CLR,OVC,0.00,WeatherDisplay:10.37,2013-04-21 06:05:00,
2013-04-21 02:10:00,41.9,33.9,30.27,ENE,68,0.0,0.0,73,0.00,CLR,OVC,0.00,WeatherDisplay:10.37,2013-04-21 06:10:00,
2013-04-21 02:20:00,42.1,34.4,30.27,ENE,68,0.0,0.0,74,0.00,CLR,OVC,0.00,WeatherDisplay:10.37,2013-04-21 06:20:00,
2013-04-21 02:30:00,41.9,34.2,30.27,ENE,68,0.0,0.0,74,0.00,CLR,OVC,0.00,WeatherDisplay:10.37,2013-04-21 06:30:00,
2013-04-21 02:40:00,41.7,34.4,30.27,ENE,68,0.0,0.0,75,0.00,CLR,OVC,0.00,WeatherDisplay:10.37,2013-04-21 06:40:00,
2013-04-21 02:50:00,41.5,34.2,30.27,ENE,68,0.0,0.0,75,0.00,CLR,OVC,0.00,WeatherDisplay:10.37,2013-04-21 06:50:00,
2013-04-21 03:00:00,41.2,33.9,30.27,ENE,68,0.0,0.0,75,0.00,CLR,OVC,0.00,WeatherDisplay:10.37,2013-04-21 07:00:00,
2013-04-21 03:05:00,41.0,34.0,30.27,ENE,68,0.0,0.0,76,0.00,CLR,OVC,0.00,WeatherDisplay:10.37,2013-04-21 07:05:00,
2013-04-21 03:10:00,41.0,34.0,30.27,ENE,68,0.0,0.0,76,0.00,CLR,OVC,0.00,WeatherDisplay:10.37,2013-04-21 07:10:00,
2013-04-21 03:20:00,40.8,33.8,30.27,ENE,68,0.0,0.0,76,0.00,CLR,OVC,0.00,WeatherDisplay:10.37,2013-04-21 07:20:00,
2013-04-21 03:30:00,40.6,33.7,30.27,ENE,68,0.0,0.0,76,0.00,CLR,OVC,0.00,WeatherDisplay:10.37,2013-04-21 07:30:00,
2013-04-21 03:40:00,40.5,33.5,30.27,ENE,68,0.0,0.0,76,0.00,CLR,OVC,0.00,WeatherDisplay:10.37,2013-04-21 07:40:00,
2013-04-21 03:50:00,40.3,33.6,30.27,ENE,68,0.0,0.0,77,0.00,CLR,OVC,0.00,WeatherDisplay:10.37,2013-04-21 07:50:00,
2013-04-21 04:00:00,40.3,33.6,30.27,ENE,68,0.0,0.0,77,0.00,CLR,OVC,0.00,WeatherDisplay:10.37,2013-04-21 08:00:00,
2013-04-21 04:05:00,40.1,33.5,30.27,ENE,68,0.0,0.0,77,0.00,CLR,OVC,0.00,WeatherDisplay:10.37,2013-04-21 08:05:00,
2013-04-21 04:10:00,40.1,33.5,30.30,ENE,68,0.0,0.0,77,0.00,CLR,OVC,0.00,WeatherDisplay:10.37,2013-04-21 08:10:00,
2013-04-21 04:20:00,39.9,33.6,30.30,ENE,68,0.0,0.0,78,0.00,CLR,OVC,0.00,WeatherDisplay:10.37,2013-04-21 08:20:00,
2013-04-21 04:30:00,39.7,33.4,30.30,ENE,68,0.0,0.0,78,0.00,CLR,OVC,0.00,WeatherDisplay:10.37,2013-04-21 08:30:00,
2013-04-21 04:35:00,39.7,33.4,30.30,ENE,68,0.0,0.0,78,0.00,CLR,OVC,0.00,WeatherDisplay:10.37,2013-04-21 08:35:00,
2013-04-21 04:40:00,39.7,33.8,30.30,ENE,68,0.0,0.0,79,0.00,CLR,OVC,0.00,WeatherDisplay:10.37,2013-04-21 08:40:00,
2013-04-21 04:50:00,39.6,33.6,30.30,ENE,68,0.0,0.0,79,0.00,CLR,OVC,0.00,WeatherDisplay:10.37,2013-04-21 08:50:00,
2013-04-21 05:00:00,39.4,33.4,30.30,ENE,68,0.0,0.0,79,0.00,CLR,OVC,0.00,WeatherDisplay:10.37,2013-04-21 09:00:00,
2013-04-21 05:05:00,39.2,33.2,30.30,ENE,68,0.0,0.0,79,0.00,CLR,OVC,0.00,WeatherDisplay:10.37,2013-04-21 09:05:00,
2013-04-21 05:10:00,39.2,33.2,30.30,ENE,68,0.0,0.0,79,0.00,CLR,OVC,0.00,WeatherDisplay:10.37,2013-04-21 09:10:00,
2013-04-21 05:20:00,38.8,33.2,30.30,ENE,68,0.0,0.0,80,0.00,CLR,OVC,0.00,WeatherDisplay:10.37,2013-04-21 09:20:00,
2013-04-21 05:30:00,38.8,33.2,30.30,East,80,0.0,0.0,80,0.00,CLR,OVC,0.00,WeatherDisplay:10.37,2013-04-21 09:30:00,
2013-04-21 05:40:00,39.4,33.7,30.30,ENE,63,0.0,0.0,80,0.00,CLR,OVC,0.00,WeatherDisplay:10.37,2013-04-21 09:40:00,
2013-04-21 05:50:00,39.6,33.9,30.30,ENE,73,0.0,0.0,80,0.00,CLR,OVC,0.00,WeatherDisplay:10.37,2013-04-21 09:50:00,
2013-04-21 05:55:00,39.7,34.1,30.30,NE,55,0.0,0.0,80,0.00,CLR,OVC,0.00,WeatherDisplay:10.37,2013-04-21 09:55:00,
2013-04-21 06:00:00,39.9,34.6,30.30,NE,51,0.0,0.0,81,0.00,CLR,OVC,0.00,WeatherDisplay:10.37,2013-04-21 10:00:00,
2013-04-21 06:05:00,40.2,34.8,30.30,ENE,66,0.0,4.0,81,0.00,CLR,OVC,0.00,WeatherDisplay:10.37,2013-04-21 10:05:00,
2013-04-21 06:10:00,40.5,35.1,30.33,ENE,75,0.0,0.0,81,0.00,CLR,OVC,0.00,WeatherDisplay:10.37,2013-04-21 10:10:00,
2013-04-21 06:20:00,40.6,35.3,30.33,East,88,0.0,0.0,81,0.00,CLR,OVC,0.00,WeatherDisplay:10.37,2013-04-21 10:20:00,
2013-04-21 06:30:00,40.8,35.4,30.33,East,80,0.0,4.0,81,0.00,CLR,OVC,0.00,WeatherDisplay:10.37,2013-04-21 10:30:00,
2013-04-21 06:40:00,41.0,35.3,30.33,ENE,70,0.0,0.0,80,0.00,CLR,OVC,0.00,WeatherDisplay:10.37,2013-04-21 10:40:00,
2013-04-21 06:50:00,41.2,35.5,30.33,East,88,0.0,4.0,80,0.00,CLR,OVC,0.00,WeatherDisplay:10.37,2013-04-21 10:50:00,
2013-04-21 06:55:00,41.5,35.8,30.33,East,88,0.0,0.0,80,0.00,CLR,OVC,0.00,WeatherDisplay:10.37,2013-04-21 10:55:00,
2013-04-21 07:00:00,41.7,36.0,30.33,ENE,72,0.0,0.0,80,0.00,CLR,OVC,0.00,WeatherDisplay:10.37,2013-04-21 11:00:00,
2013-04-21 07:05:00,42.0,36.2,30.33,ENE,58,0.0,0.0,80,0.00,CLR,OVC,0.00,WeatherDisplay:10.37,2013-04-21 11:05:00,
2013-04-21 07:10:00,42.3,36.5,30.36,ENE,66,0.0,0.0,80,0.00,CLR,OVC,0.00,WeatherDisplay:10.37,2013-04-21 11:10:00,
2013-04-21 07:20:00,42.8,36.4,30.36,NE,51,0.0,0.0,78,0.00,CLR,OVC,0.00,WeatherDisplay:10.37,2013-04-21 11:20:00,
2013-04-21 07:25:00,43.1,36.7,30.36,ENE,58,0.0,0.0,78,0.00,CLR,OVC,0.00,WeatherDisplay:10.37,2013-04-21 11:25:00,
2013-04-21 07:30:00,43.3,36.6,30.36,NE,49,0.0,0.0,77,0.00,CLR,OVC,0.00,WeatherDisplay:10.37,2013-04-21 11:30:00,
2013-04-21 07:35:00,43.6,36.5,30.36,NE,49,0.0,0.0,76,0.00,CLR,OVC,0.00,WeatherDisplay:10.37,2013-04-21 11:35:00,
2013-04-21 07:40:00,43.9,36.5,30.36,North,11,0.0,4.0,75,0.00,CLR,OVC,0.00,WeatherDisplay:10.37,2013-04-21 11:40:00,
2013-04-21 07:50:00,44.6,36.1,30.36,ENE,77,1.0,6.0,72,0.00,CLR,OVC,0.00,WeatherDisplay:10.37,2013-04-21 11:50:00,
2013-04-21 08:00:00,45.1,35.6,30.36,ENE,67,1.0,5.0,69,0.00,CLR,OVC,0.00,WeatherDisplay:10.37,2013-04-21 12:00:00,
2013-04-21 08:05:00,45.3,35.4,30.36,ENE,69,0.0,5.0,68,0.00,CLR,OVC,0.00,WeatherDisplay:10.37,2013-04-21 12:05:00,
2013-04-21 08:10:00,45.6,35.3,30.36,ENE,65,0.0,5.0,67,0.00,CLR,OVC,0.00,WeatherDisplay:10.37,2013-04-21 12:10:00,
2013-04-21 08:20:00,46.0,34.5,30.36,NE,50,0.0,6.0,64,0.00,CLR,OVC,0.00,WeatherDisplay:10.37,2013-04-21 12:20:00,
2013-04-21 08:30:00,46.4,34.1,30.39,North,11,0.0,5.0,62,0.00,CLR,OVC,0.00,WeatherDisplay:10.37,2013-04-21 12:30:00,
2013-04-21 08:40:00,47.0,33.9,30.39,East,84,2.0,6.0,60,0.00,CLR,OVC,0.00,WeatherDisplay:10.37,2013-04-21 12:40:00,
2013-04-21 08:50:00,47.7,34.0,30.39,ENE,71,0.0,5.0,59,0.00,CLR,OVC,0.00,WeatherDisplay:10.37,2013-04-21 12:50:00,
2013-04-21 09:00:00,48.4,33.8,30.39,NNE,15,0.0,6.0,57,0.00,CLR,OVC,0.00,WeatherDisplay:10.37,2013-04-21 13:00:00,
2013-04-21 09:05:00,48.7,33.7,30.39,NE,56,1.0,6.0,56,0.00,CLR,OVC,0.00,WeatherDisplay:10.37,2013-04-21 13:05:00,
2013-04-21 09:10:00,48.9,33.4,30.39,ENE,57,1.0,6.0,55,0.00,CLR,OVC,0.00,WeatherDisplay:10.37,2013-04-21 13:10:00,
2013-04-21 09:20:00,49.5,32.6,30.39,East,100,5.0,7.0,52,0.00,CLR,OVC,0.00,WeatherDisplay:10.37,2013-04-21 13:20:00,
2013-04-21 09:25:00,49.8,33.4,30.39,ENE,58,2.0,5.0,53,0.00,CLR,OVC,0.00,WeatherDisplay:10.37,2013-04-21 13:25:00,
2013-04-21 09:30:00,50.2,33.7,30.39,NNW,347,0.0,8.0,53,0.00,CLR,OVC,0.00,WeatherDisplay:10.37,2013-04-21 13:30:00,
2013-04-21 09:40:00,50.7,33.7,30.42,ENE,71,0.0,9.0,52,0.00,CLR,OVC,0.00,WeatherDisplay:10.37,2013-04-21 13:40:00,
2013-04-21 09:50:00,51.5,33.9,30.42,ESE,103,3.0,9.0,51,0.00,CLR,OVC,0.00,WeatherDisplay:10.37,2013-04-21 13:50:00,
2013-04-21 10:00:00,52.0,33.9,30.42,ENE,69,2.0,10.0,50,0.00,CLR,OVC,0.00,WeatherDisplay:10.37,2013-04-21 14:00:00,
2013-04-21 10:05:00,52.2,34.1,30.42,ENE,61,3.0,9.0,50,0.00,CLR,OVC,0.00,WeatherDisplay:10.37,2013-04-21 14:05:00,
2013-04-21 10:10:00,52.7,34.1,30.42,East,99,1.0,8.0,49,0.00,CLR,OVC,0.00,WeatherDisplay:10.37,2013-04-21 14:10:00,
2013-04-21 10:20:00,53.7,35.0,30.42,East,90,3.0,7.0,49,0.00,CLR,OVC,0.00,WeatherDisplay:10.37,2013-04-21 14:20:00,
2013-04-21 10:30:00,54.9,36.1,30.42,NE,52,2.0,7.0,49,0.00,CLR,OVC,0.00,WeatherDisplay:10.37,2013-04-21 14:30:00,
2013-04-21 10:40:00,56.3,36.9,30.42,East,87,3.0,12.0,48,0.00,CLR,OVC,0.00,WeatherDisplay:10.37,2013-04-21 14:40:00,
2013-04-21 10:45:00,56.9,37.4,30.42,ESE,112,0.0,10.0,48,0.00,CLR,OVC,0.00,WeatherDisplay:10.37,2013-04-21 14:45:00,
2013-04-21 10:50:00,57.4,36.8,30.42,SE,134,1.0,7.0,46,0.00,CLR,OVC,0.00,WeatherDisplay:10.37,2013-04-21 14:50:00,
2013-04-21 11:00:00,58.3,37.6,30.42,ENE,77,0.0,5.0,46,0.00,CLR,OVC,0.00,WeatherDisplay:10.37,2013-04-21 15:00:00,
2013-04-21 11:05:00,58.7,38.0,30.42,ESE,109,2.0,7.0,46,0.00,CLR,OVC,0.00,WeatherDisplay:10.37,2013-04-21 15:05:00,
2013-04-21 11:10:00,59.1,37.7,30.42,SE,124,3.0,7.0,45,0.00,CLR,OVC,0.00,WeatherDisplay:10.37,2013-04-21 15:10:00,
2013-04-21 11:20:00,59.4,36.8,30.42,East,83,3.0,7.0,43,0.00,CLR,OVC,0.00,WeatherDisplay:10.37,2013-04-21 15:20:00,
2013-04-21 11:30:00,59.7,36.6,30.42,ESE,106,0.0,6.0,42,0.00,CLR,OVC,0.00,WeatherDisplay:10.37,2013-04-21 15:30:00,
2013-04-21 11:40:00,60.1,36.9,30.42,East,86,3.0,7.0,42,0.00,CLR,OVC,0.00,WeatherDisplay:10.37,2013-04-21 15:40:00,
2013-04-21 11:50:00,60.3,36.5,30.42,ESE,114,3.0,8.0,41,0.00,CLR,OVC,0.00,WeatherDisplay:10.37,2013-04-21 15:50:00,
2013-04-21 12:00:00,60.6,35.5,30.42,East,101,5.0,8.0,39,0.00,CLR,OVC,0.00,WeatherDisplay:10.37,2013-04-21 16:00:00,
2013-04-21 12:05:00,60.8,35.7,30.42,ESE,102,2.0,6.0,39,0.00,CLR,OVC,0.00,WeatherDisplay:10.37,2013-04-21 16:05:00,
2013-04-21 12:10:00,61.3,36.7,30.42,ESE,108,5.0,8.0,40,0.00,CLR,OVC,0.00,WeatherDisplay:10.37,2013-04-21 16:10:00,
2013-04-21 12:20:00,61.7,36.5,30.42,ENE,65,0.0,5.0,39,0.00,CLR,OVC,0.00,WeatherDisplay:10.37,2013-04-21 16:20:00,
2013-04-21 12:30:00,62.4,37.1,30.42,ESE,116,2.0,6.0,39,0.00,CLR,OVC,0.00,WeatherDisplay:10.37,2013-04-21 16:30:00,
2013-04-21 12:40:00,62.8,36.8,30.39,SE,128,5.0,12.0,38,0.00,CLR,OVC,0.00,WeatherDisplay:10.37,2013-04-21 16:40:00,
2013-04-21 12:50:00,63.9,38.4,30.39,East,98,1.0,7.0,39,0.00,CLR,OVC,0.00,WeatherDisplay:10.37,2013-04-21 16:50:00,
2013-04-21 13:00:00,63.5,36.7,30.39,ESE,102,5.0,7.0,37,0.00,CLR,OVC,0.00,WeatherDisplay:10.37,2013-04-21 17:00:00,
2013-04-21 13:05:00,64.0,36.5,30.39,ESE,110,1.0,6.0,36,0.00,CLR,OVC,0.00,WeatherDisplay:10.37,2013-04-21 17:05:00,
2013-04-21 13:10:00,64.4,35.4,30.39,ESE,119,6.0,9.0,34,0.00,CLR,OVC,0.00,WeatherDisplay:10.37,2013-04-21 17:10:00,
2013-04-21 13:20:00,65.1,36.0,30.39,East,92,3.0,8.0,34,0.00,CLR,OVC,0.00,WeatherDisplay:10.37,2013-04-21 17:20:00,
2013-04-21 13:30:00,64.9,35.0,30.39,East,82,0.0,8.0,33,0.00,CLR,OVC,0.00,WeatherDisplay:10.37,2013-04-21 17:30:00,
2013-04-21 13:40:00,64.4,35.4,30.39,ENE,66,2.0,7.0,34,0.00,CLR,OVC,0.00,WeatherDisplay:10.37,2013-04-21 17:40:00,
2013-04-21 13:50:00,65.1,35.3,30.39,SE,140,3.0,8.0,33,0.00,CLR,OVC,0.00,WeatherDisplay:10.37,2013-04-21 17:50:00,
2013-04-21 13:55:00,64.5,35.5,30.39,ESE,109,1.0,7.0,34,0.00,CLR,OVC,0.00,WeatherDisplay:10.37,2013-04-21 17:55:00,
2013-04-21 14:00:00,64.4,35.4,30.39,East,85,0.0,6.0,34,0.00,CLR,OVC,0.00,WeatherDisplay:10.37,2013-04-21 18:00:00,
2013-04-21 14:05:00,64.0,35.1,30.39,East,101,3.0,10.0,34,0.00,CLR,OVC,0.00,WeatherDisplay:10.37,2013-04-21 18:05:00,
2013-04-21 14:10:00,63.1,34.3,30.39,ESE,121,0.0,5.0,34,0.00,CLR,OVC,0.00,WeatherDisplay:10.37,2013-04-21 18:10:00,
2013-04-21 14:20:00,64.0,35.0,30.39,ESE,112,6.0,10.0,34,0.00,CLR,OVC,0.00,WeatherDisplay:10.37,2013-04-21 18:20:00,
2013-04-21 14:30:00,64.9,35.1,30.39,East,87,2.0,8.0,33,0.00,CLR,OVC,0.00,WeatherDisplay:10.37,2013-04-21 18:30:00,
2013-04-21 14:40:00,64.9,35.1,30.39,ESE,105,5.0,9.0,33,0.00,CLR,OVC,0.00,WeatherDisplay:10.37,2013-04-21 18:40:00,
2013-04-21 14:50:00,64.4,34.6,30.39,East,97,3.0,7.0,33,0.00,CLR,OVC,0.00,WeatherDisplay:10.37,2013-04-21 18:50:00,
2013-04-21 15:00:00,64.6,34.8,30.39,ESE,115,3.0,8.0,33,0.00,CLR,OVC,0.00,WeatherDisplay:10.37,2013-04-21 19:00:00,
2013-04-21 15:05:00,64.4,34.6,30.39,ESE,104,5.0,7.0,33,0.00,CLR,OVC,0.00,WeatherDisplay:10.37,2013-04-21 19:05:00,
2013-04-21 15:10:00,64.2,34.5,30.39,East,88,1.0,9.0,33,0.00,CLR,OVC,0.00,WeatherDisplay:10.37,2013-04-21 19:10:00,
2013-04-21 15:20:00,63.1,33.5,30.39,ENE,60,0.0,6.0,33,0.00,CLR,OVC,0.00,WeatherDisplay:10.37,2013-04-21 19:20:00,
2013-04-21 15:30:00,62.9,33.3,30.36,ESE,115,5.0,7.0,33,0.00,CLR,OVC,0.00,WeatherDisplay:10.37,2013-04-21 19:30:00,
2013-04-21 15:40:00,62.6,33.1,30.36,East,100,1.0,7.0,33,0.00,CLR,OVC,0.00,WeatherDisplay:10.37,2013-04-21 19:40:00,
2013-04-21 15:45:00,62.4,33.7,30.36,NE,47,3.0,8.0,34,0.00,CLR,OVC,0.00,WeatherDisplay:10.37,2013-04-21 19:45:00,
2013-04-21 15:50:00,62.2,33.5,30.36,ENE,65,5.0,7.0,34,0.00,CLR,OVC,0.00,WeatherDisplay:10.37,2013-04-21 19:50:00,
2013-04-21 15:55:00,62.4,33.7,30.36,East,89,5.0,8.0,34,0.00,CLR,OVC,0.00,WeatherDisplay:10.37,2013-04-21 19:55:00,
2013-04-21 16:00:00,62.4,33.7,30.36,ESE,122,2.0,8.0,34,0.00,CLR,OVC,0.00,WeatherDisplay:10.37,2013-04-21 20:00:00,
2013-04-21 16:05:00,62.2,33.5,30.36,East,101,0.0,8.0,34,0.00,CLR,OVC,0.00,WeatherDisplay:10.37,2013-04-21 20:05:00,
2013-04-21 16:10:00,62.4,33.7,30.36,ENE,75,1.0,7.0,34,0.00,CLR,OVC,0.00,WeatherDisplay:10.37,2013-04-21 20:10:00,
2013-04-21 16:20:00,62.4,33.7,30.36,ENE,77,0.0,7.0,34,0.00,CLR,OVC,0.00,WeatherDisplay:10.37,2013-04-21 20:20:00,
2013-04-21 16:25:00,62.2,33.5,30.36,ENE,65,0.0,8.0,34,0.00,CLR,OVC,0.00,WeatherDisplay:10.37,2013-04-21 20:25:00,
2013-04-21 16:30:00,62.4,33.7,30.36,ENE,73,5.0,8.0,34,0.00,CLR,OVC,0.00,WeatherDisplay:10.37,2013-04-21 20:30:00,
2013-04-21 16:35:00,62.6,33.1,30.36,ENE,64,0.0,7.0,33,0.00,CLR,OVC,0.00,WeatherDisplay:10.37,2013-04-21 20:35:00,
2013-04-21 16:40:00,62.8,33.2,30.33,ENE,69,2.0,6.0,33,0.00,CLR,OVC,0.00,WeatherDisplay:10.37,2013-04-21 20:40:00,
2013-04-21 16:50:00,62.4,33.7,30.33,East,92,0.0,7.0,34,0.00,CLR,OVC,0.00,WeatherDisplay:10.37,2013-04-21 20:50:00,
2013-04-21 17:00:00,62.1,33.3,30.33,SE,131,2.0,6.0,34,0.00,CLR,OVC,0.00,WeatherDisplay:10.37,2013-04-21 21:00:00,
2013-04-21 17:05:00,62.2,33.5,30.33,NNE,29,5.0,9.0,34,0.00,CLR,OVC,0.00,WeatherDisplay:10.37,2013-04-21 21:05:00,
2013-04-21 17:10:00,62.2,33.5,30.33,East,94,1.0,7.0,34,0.00,CLR,OVC,0.00,WeatherDisplay:10.37,2013-04-21 21:10:00,
2013-04-21 17:15:00,62.1,33.3,30.33,ESE,114,0.0,4.0,34,0.00,CLR,OVC,0.00,WeatherDisplay:10.37,2013-04-21 21:15:00,
2013-04-21 17:20:00,61.9,33.2,30.33,ESE,105,2.0,7.0,34,0.00,CLR,OVC,0.00,WeatherDisplay:10.37,2013-04-21 21:20:00,
2013-04-21 17:25:00,61.7,33.0,30.36,East,99,3.0,6.0,34,0.00,CLR,OVC,0.00,WeatherDisplay:10.37,2013-04-21 21:25:00,
2013-04-21 17:30:00,61.3,32.7,30.36,East,100,0.0,5.0,34,0.00,CLR,OVC,0.00,WeatherDisplay:10.37,2013-04-21 21:30:00,
2013-04-21 17:35:00,61.4,32.7,30.36,East,84,3.0,7.0,34,0.00,CLR,OVC,0.00,WeatherDisplay:10.37,2013-04-21 21:35:00,
2013-04-21 17:40:00,61.6,32.9,30.33,ENE,71,1.0,9.0,34,0.00,CLR,OVC,0.00,WeatherDisplay:10.37,2013-04-21 21:40:00,
2013-04-21 17:50:00,61.7,33.0,30.33,ESE,116,0.0,8.0,34,0.00,CLR,OVC,0.00,WeatherDisplay:10.37,2013-04-21 21:50:00,
2013-04-21 17:55:00,61.7,33.0,30.33,East,93,2.0,8.0,34,0.00,CLR,OVC,0.00,WeatherDisplay:10.37,2013-04-21 21:55:00,
2013-04-21 18:05:00,61.5,32.9,30.33,East,83,3.0,8.0,34,0.00,CLR,OVC,0.00,WeatherDisplay:10.37,2013-04-21 22:05:00,
2013-04-21 18:10:00,61.5,32.9,30.33,East,80,5.0,8.0,34,0.00,CLR,OVC,0.00,WeatherDisplay:10.37,2013-04-21 22:10:00,
2013-04-21 18:20:00,61.2,32.6,30.33,ESE,104,1.0,5.0,34,0.00,CLR,OVC,0.00,WeatherDisplay:10.37,2013-04-21 22:20:00,
2013-04-21 18:30:00,60.8,32.2,30.33,East,84,0.0,3.0,34,0.00,CLR,OVC,0.00,WeatherDisplay:10.37,2013-04-21 22:30:00,
2013-04-21 18:40:00,60.4,31.9,30.36,NE,48,0.0,4.0,34,0.00,CLR,OVC,0.00,WeatherDisplay:10.37,2013-04-21 22:40:00,
2013-04-21 18:45:00,60.4,31.9,30.36,ENE,68,1.0,8.0,34,0.00,CLR,OVC,0.00,WeatherDisplay:10.37,2013-04-21 22:45:00,
2013-04-21 18:50:00,60.4,31.9,30.36,East,94,3.0,9.0,34,0.00,CLR,OVC,0.00,WeatherDisplay:10.37,2013-04-21 22:50:00,
2013-04-21 18:55:00,60.3,31.8,30.36,East,79,2.0,8.0,34,0.00,CLR,OVC,0.00,WeatherDisplay:10.37,2013-04-21 22:55:00,
2013-04-21 19:00:00,60.3,31.8,30.36,ENE,73,1.0,8.0,34,0.00,CLR,OVC,0.00,WeatherDisplay:10.37,2013-04-21 23:00:00,
2013-04-21 19:05:00,60.1,31.6,30.36,East,96,0.0,7.0,34,0.00,CLR,OVC,0.00,WeatherDisplay:10.37,2013-04-21 23:05:00,
2013-04-21 19:10:00,60.1,31.6,30.36,East,99,0.0,5.0,34,0.00,CLR,OVC,0.00,WeatherDisplay:10.37,2013-04-21 23:10:00,
2013-04-21 19:20:00,59.7,32.7,30.36,ESE,104,0.0,0.0,36,0.00,CLR,OVC,0.00,WeatherDisplay:10.37,2013-04-21 23:20:00,
2013-04-21 19:30:00,59.2,32.2,30.36,East,86,0.0,0.0,36,0.00,CLR,OVC,0.00,WeatherDisplay:10.37,2013-04-21 23:30:00,
2013-04-21 19:35:00,59.2,32.2,30.36,East,89,0.0,6.0,36,0.00,CLR,OVC,0.00,WeatherDisplay:10.37,2013-04-21 23:35:00,
2013-04-21 19:40:00,58.8,31.9,30.36,ENE,74,0.0,5.0,36,0.00,CLR,OVC,0.00,WeatherDisplay:10.37,2013-04-21 23:40:00,
2013-04-21 19:45:00,58.6,32.4,30.36,ENE,66,0.0,0.0,37,0.00,CLR,OVC,0.00,WeatherDisplay:10.37,2013-04-21 23:45:00,
2013-04-21 19:50:00,58.5,32.3,30.36,ENE,76,0.0,0.0,37,0.00,CLR,OVC,0.00,WeatherDisplay:10.37,2013-04-21 23:50:00,
2013-04-21 20:00:00,58.1,31.9,30.36,ENE,66,0.0,0.0,37,0.00,CLR,OVC,0.00,WeatherDisplay:10.37,2013-04-22 00:00:00,
2013-04-21 20:05:00,57.9,31.8,30.36,NE,45,0.0,0.0,37,0.00,CLR,OVC,0.00,WeatherDisplay:10.37,2013-04-22 00:05:00,
2013-04-21 20:10:00,57.7,32.3,30.36,NE,45,0.0,0.0,38,0.00,CLR,OVC,0.00,WeatherDisplay:10.37,2013-04-22 00:10:00,
2013-04-21 20:15:00,57.6,32.1,30.36,ENE,71,0.0,0.0,38,0.00,CLR,OVC,0.00,WeatherDisplay:10.37,2013-04-22 00:15:00,
2013-04-21 20:25:00,57.0,32.3,30.36,ENE,70,0.0,0.0,39,0.00,CLR,OVC,0.00,WeatherDisplay:10.37,2013-04-22 00:25:00,
2013-04-21 20:30:00,56.8,32.1,30.36,ENE,66,0.0,0.0,39,0.00,CLR,OVC,0.00,WeatherDisplay:10.37,2013-04-22 00:30:00,
2013-04-21 20:40:00,56.5,32.4,30.36,East,96,0.0,0.0,40,0.00,CLR,OVC,0.00,WeatherDisplay:10.37,2013-04-22 00:40:00,
2013-04-21 20:50:00,56.1,33.3,30.36,East,99,0.0,3.0,42,0.00,CLR,OVC,0.00,WeatherDisplay:10.37,2013-04-22 00:50:00,
2013-04-21 21:00:00,55.8,33.0,30.39,East,89,0.0,0.0,42,0.00,CLR,OVC,0.00,WeatherDisplay:10.37,2013-04-22 01:00:00,
2013-04-21 21:05:00,55.6,32.8,30.39,SE,125,0.0,0.0,42,0.00,CLR,OVC,0.00,WeatherDisplay:10.37,2013-04-22 01:05:00,
2013-04-21 21:10:00,55.4,33.3,30.39,SE,138,0.0,0.0,43,0.00,CLR,OVC,0.00,WeatherDisplay:10.37,2013-04-22 01:10:00,
2013-04-21 21:15:00,55.2,33.7,30.39,SE,138,0.0,0.0,44,0.00,CLR,OVC,0.00,WeatherDisplay:10.37,2013-04-22 01:15:00,
2013-04-21 21:20:00,55.0,33.5,30.39,SE,138,0.0,0.0,44,0.00,CLR,OVC,0.00,WeatherDisplay:10.37,2013-04-22 01:20:00,
2013-04-21 21:25:00,54.9,33.9,30.39,SE,138,0.0,0.0,45,0.00,CLR,OVC,0.00,WeatherDisplay:10.37,2013-04-22 01:25:00,
2013-04-21 21:30:00,54.7,34.3,30.39,SE,125,0.0,0.0,46,0.00,CLR,OVC,0.00,WeatherDisplay:10.37,2013-04-22 01:30:00,
2013-04-21 21:40:00,54.1,33.8,30.39,ENE,59,0.0,0.0,46,0.00,CLR,OVC,0.00,WeatherDisplay:10.37,2013-04-22 01:40:00,
2013-04-21 21:50:00,53.6,33.8,30.39,NE,55,0.0,0.0,47,0.00,CLR,OVC,0.00,WeatherDisplay:10.37,2013-04-22 01:50:00,
2013-04-21 21:55:00,53.2,34.0,30.39,NE,49,0.0,0.0,48,0.00,CLR,OVC,0.00,WeatherDisplay:10.37,2013-04-22 01:55:00,
2013-04-21 22:00:00,53.1,33.9,30.39,ENE,78,0.0,0.0,48,0.00,CLR,OVC,0.00,WeatherDisplay:10.37,2013-04-22 02:00:00,
2013-04-21 22:05:00,52.8,33.6,30.39,East,98,0.0,0.0,48,0.00,CLR,OVC,0.00,WeatherDisplay:10.37,2013-04-22 02:05:00,
2013-04-21 22:10:00,52.5,33.4,30.39,East,82,0.0,5.0,48,0.00,CLR,OVC,0.00,WeatherDisplay:10.37,2013-04-22 02:10:00,
2013-04-21 22:15:00,52.3,33.7,30.39,East,81,0.0,3.0,49,0.00,CLR,OVC,0.00,WeatherDisplay:10.37,2013-04-22 02:15:00,
2013-04-21 22:20:00,52.2,33.6,30.39,East,82,0.0,0.0,49,0.00,CLR,OVC,0.00,WeatherDisplay:10.37,2013-04-22 02:20:00,
2013-04-21 22:25:00,52.2,33.6,30.39,East,94,0.0,0.0,49,0.00,CLR,OVC,0.00,WeatherDisplay:10.37,2013-04-22 02:25:00,
2013-04-21 22:30:00,52.0,33.4,30.39,ESE,122,0.0,0.0,49,0.00,CLR,OVC,0.00,WeatherDisplay:10.37,2013-04-22 02:30:00,
2013-04-21 22:40:00,51.7,33.7,30.39,ESE,104,0.0,0.0,50,0.00,CLR,OVC,0.00,WeatherDisplay:10.37,2013-04-22 02:40:00,
2013-04-21 22:45:00,51.6,33.6,30.39,ENE,77,0.0,0.0,50,0.00,CLR,OVC,0.00,WeatherDisplay:10.37,2013-04-22 02:45:00,
2013-04-21 22:50:00,51.6,33.6,30.39,NE,49,0.0,0.0,50,0.00,CLR,OVC,0.00,WeatherDisplay:10.37,2013-04-22 02:50:00,
2013-04-21 23:00:00,51.4,33.4,30.39,ENE,67,0.0,0.0,50,0.00,CLR,OVC,0.00,WeatherDisplay:10.37,2013-04-22 03:00:00,
2013-04-21 23:05:00,51.4,33.4,30.39,ENE,73,0.0,0.0,50,0.00,CLR,OVC,0.00,WeatherDisplay:10.37,2013-04-22 03:05:00,
2013-04-21 23:10:00,51.4,33.4,30.39,East,86,0.0,3.0,50,0.00,CLR,OVC,0.00,WeatherDisplay:10.37,2013-04-22 03:10:00,
2013-04-21 23:20:00,51.4,33.4,30.39,ENE,76,0.0,0.0,50,0.00,CLR,OVC,0.00,WeatherDisplay:10.37,2013-04-22 03:20:00,
2013-04-21 23:30:00,51.4,33.9,30.39,ENE,77,0.0,7.0,51,0.00,CLR,OVC,0.00,WeatherDisplay:10.37,2013-04-22 03:30:00,
2013-04-21 23:35:00,51.3,33.7,30.39,ENE,71,0.0,3.0,51,0.00,CLR,OVC,0.00,WeatherDisplay:10.37,2013-04-22 03:35:00,
2013-04-21 23:40:00,51.3,33.7,30.39,East,87,0.0,0.0,51,0.00,CLR,OVC,0.00,WeatherDisplay:10.37,2013-04-22 03:40:00,
2013-04-21 23:50:00,51.3,33.7,30.39,ENE,77,0.0,5.0,51,0.00,CLR,OVC,0.00,WeatherDisplay:10.37,2013-04-22 03:50:00,
2013-04-21 23:55:00,51.3,33.7,30.39,East,85,0.0,3.0,51,0.00,CLR,OVC,0.00,WeatherDisplay:10.37,2013-04-22 03:55:00,